Spencer, IA

5:08 PM CDT on September 25, 2016 (GMT -0500)
Spencer Municipal

Weather History for KSPW - March, 2012

Change the Weather History Date:

Wednesday, March 7, 2012

  Actual Average Record
Temperature  
Mean Temperature 40 °F -  
Max Temperature 50 °F 35 °F 74 °F (1987)
Min Temperature 30 °F 16 °F -9 °F (2008)
Degree Days  
Heating Degree Days 25    
Moisture  
Dew Point 33 °F    
Average Humidity 83    
Maximum Humidity 92    
Minimum Humidity 69    
Precipitation  
Precipitation 0.01 in - - ()
Sea Level Pressure  
Sea Level Pressure 29.75 in    
Wind  
Wind Speed 14 mph (NW)    
Max Wind Speed 20 mph    
Max Gust Speed 29 mph    
Visibility 7 miles    
Events Rain    
Averages and records for this station are not official NWS values.
T = Trace of Precipitation, MM = Missing Value Source: NWS Daily Summary

Daily Weather History Graph

Daily Weather History Graph

Search for Another Location

Airport or City:

Trip Planner

Search our weather history database for the weather conditions in past years. The results will help you decide how hot, cold, wet, or windy it might be!

Date:

Astronomy

Mar. 07, 2012 Rise Set
Actual Time 6:45 AM CST 6:18 PM CST
Civil Twilight 6:17 AM CST 6:46 PM CST
Nautical Twilight 5:44 AM CST 7:19 PM CST
Astronomical Twilight 5:11 AM CST 7:52 PM CST
Moon 5:56 PM CST (3/7) 5:56 AM CST (3/7)
Length of Visible Light 12h 28m
Length of Day
11h 32m
Waxing Gibbous, 99% of the Moon is Illuminated
Mar 7
Waxing Gibbous
Mar 8
Full
Mar 14
Last Quarter
Mar 22
New
Mar 30
First Quarter

Hourly Weather History & Observations

Time (CST) Temp. Windchill Dew Point Humidity Pressure Visibility Wind Dir Wind Speed Gust Speed Precip Events Conditions
12:53 AM 46.9 °F - 42.1 °F 83% 29.57 in 10.0 mi South 13.8 mph - N/A   Clear
1:53 AM 50.0 °F - 44.1 °F 80% 29.56 in 10.0 mi South 15.0 mph - N/A   Clear
2:53 AM 48.0 °F - 44.1 °F 86% 29.54 in 10.0 mi South 6.9 mph - N/A   Clear
3:53 AM 46.0 °F 43.1 °F 42.1 °F 86% 29.55 in 10.0 mi SE 5.8 mph - N/A   Clear
4:53 AM 45.0 °F 40.1 °F 41.0 °F 86% 29.54 in 10.0 mi South 9.2 mph - N/A   Scattered Clouds
5:53 AM 46.9 °F - 43.0 °F 86% 29.54 in 10.0 mi SSE 11.5 mph - N/A   Overcast
6:53 AM 46.9 °F - 44.1 °F 90% 29.54 in 10.0 mi SSE 10.4 mph - N/A   Overcast
7:53 AM 48.0 °F - 44.1 °F 86% 29.55 in 10.0 mi South 10.4 mph - N/A   Overcast
8:30 AM 48.2 °F - 44.6 °F 87% 29.55 in 10.0 mi SSW 8.1 mph - N/A   Overcast
8:53 AM 50.0 °F - 45.0 °F 83% 29.58 in 10.0 mi West 10.4 mph - N/A   Overcast
9:01 AM 39.2 °F 30.8 °F 35.6 °F 87% 29.57 in 3.0 mi North 15.0 mph 21.9 mph N/A   Overcast
9:08 AM 37.4 °F 28.5 °F 33.8 °F 87% 29.58 in 2.5 mi North 15.0 mph - N/A   Overcast
9:53 AM 35.1 °F 26.4 °F 32.0 °F 89% 29.65 in 2.5 mi North 12.7 mph - N/A   Overcast
10:13 AM 33.8 °F 22.8 °F 30.2 °F 87% 29.66 in 3.0 mi NNW 18.4 mph - N/A   Overcast
10:22 AM 33.8 °F 23.2 °F 30.2 °F 87% 29.65 in 2.0 mi NNW 17.3 mph - 0.00 in Rain Light Rain
10:29 AM 33.8 °F 22.5 °F 30.2 °F 87% 29.66 in 1.5 mi NNW 19.6 mph - 0.00 in Rain Light Rain
10:41 AM 33.8 °F 22.8 °F 30.2 °F 87% 29.67 in 2.5 mi NNW 18.4 mph - 0.00 in Rain Light Rain
10:53 AM 33.1 °F 22.2 °F 30.9 °F 92% 29.71 in 2.0 mi NNW 17.3 mph - 0.00 in Rain Light Rain
11:53 AM 32.0 °F 20.8 °F 30.0 °F 92% 29.75 in 2.0 mi NNW 17.3 mph - 0.00 in Rain Light Rain
12:34 PM 33.8 °F 22.8 °F 30.2 °F 87% 29.74 in 3.0 mi NNW 18.4 mph - 0.00 in Rain Light Rain
12:49 PM 33.8 °F 23.9 °F 30.2 °F 87% 29.75 in 2.5 mi NNW 15.0 mph 24.2 mph 0.00 in Rain Light Rain
12:53 PM 33.1 °F 22.6 °F 30.0 °F 89% 29.78 in 3.0 mi NNW 16.1 mph 24.2 mph 0.00 in Rain Light Rain
1:06 PM 33.8 °F 24.3 °F 30.2 °F 87% 29.76 in 4.0 mi NNW 13.8 mph 23.0 mph 0.00 in Rain Light Freezing Rain
1:22 PM 33.8 °F 23.9 °F 30.2 °F 87% 29.76 in 9.0 mi NNW 15.0 mph - 0.00 in   Overcast
1:53 PM 35.1 °F 25.5 °F 30.9 °F 85% 29.79 in 10.0 mi NW 15.0 mph - 0.00 in   Overcast
2:53 PM 36.0 °F 26.3 °F 30.9 °F 82% 29.82 in 10.0 mi NW 16.1 mph 26.5 mph N/A   Overcast
3:00 PM 35.6 °F 25.2 °F 30.2 °F 81% 29.80 in 10.0 mi NW 18.4 mph 28.8 mph 0.01 in   Overcast
3:53 PM 37.0 °F 28.5 °F 30.0 °F 76% 29.86 in 10.0 mi NW 13.8 mph 28.8 mph 0.01 in   Mostly Cloudy
4:53 PM 35.1 °F 24.5 °F 28.0 °F 76% 29.88 in 10.0 mi NW 18.4 mph - N/A   Mostly Cloudy
5:53 PM 33.1 °F 23.4 °F 26.1 °F 75% 29.91 in 10.0 mi NNW 13.8 mph - N/A   Scattered Clouds
6:13 PM 33.8 °F 24.3 °F 26.6 °F 75% 29.88 in 10.0 mi NNW 13.8 mph - N/A   Mostly Cloudy
6:53 PM 32.0 °F 21.6 °F 26.1 °F 79% 29.95 in 10.0 mi NNW 15.0 mph - N/A   Mostly Cloudy
7:53 PM 33.1 °F 22.2 °F 26.1 °F 75% 29.99 in 10.0 mi NW 17.3 mph - N/A   Overcast
8:53 PM 32.0 °F 21.2 °F 26.1 °F 79% 30.01 in 10.0 mi NW 16.1 mph - N/A   Overcast
9:53 PM 30.9 °F 19.1 °F 25.0 °F 79% 30.04 in 10.0 mi NW 18.4 mph 25.3 mph N/A   Overcast
10:53 PM 30.9 °F 18.7 °F 24.1 °F 76% 30.07 in 10.0 mi NW 19.6 mph 28.8 mph N/A   Overcast
11:35 PM 30.2 °F 18.9 °F 21.2 °F 69% 30.03 in 10.0 mi NW 16.1 mph - N/A   Overcast
11:53 PM 30.0 °F 19.1 °F 21.9 °F 72% 30.09 in 10.0 mi NW 15.0 mph - N/A   Overcast